| time (UTC) | temp F | wind direction | speed knots | gust knots | rain 1hr in | rain 24hr in | rain mn in | humidity % | barometer mb |
| 20260831165232 | 57 | 10 | 7.0 | 10.4 | 0.00 | 0.01 | 0.00 | 90 | 1025.1 |
| 20260831164731 | 57 | 10 | 7.0 | 8.7 | 0.00 | 0.01 | 0.00 | 89 | 1025.1 |
| 20260831164230 | 58 | 11 | 7.0 | 11.3 | 0.00 | 0.01 | 0.00 | 89 | 1025.2 |
| 20260831163728 | 58 | 14 | 7.0 | 10.4 | 0.00 | 0.01 | 0.00 | 90 | 1025.2 |
| 20260831163228 | 58 | 13 | 7.8 | 10.4 | 0.00 | 0.01 | 0.00 | 90 | 1025.3 |
| 20260831162727 | 58 | 14 | 7.8 | 10.4 | 0.00 | 0.01 | 0.00 | 89 | 1025.4 |
| 20260831162225 | 58 | 15 | 7.0 | 10.4 | 0.00 | 0.01 | 0.00 | 90 | 1025.4 |
| 20260831161724 | 58 | 15 | 7.0 | 8.7 | 0.00 | 0.01 | 0.00 | 91 | 1025.6 |
| 20260831161223 | 58 | 15 | 7.0 | 11.3 | 0.00 | 0.01 | 0.00 | 92 | 1025.7 |
| 20260831160721 | 58 | 13 | 7.0 | 9.6 | 0.00 | 0.01 | 0.00 | 93 | 1025.7 |
| 20260831160218 | 57 | 12 | 7.0 | 9.6 | 0.00 | 0.01 | 0.00 | 94 | 1025.7 |
| 20260831155717 | 57 | 11 | 7.0 | 9.6 | 0.00 | 0.01 | 0.00 | 95 | 1025.8 |
| 20260831155213 | 57 | 12 | 7.0 | 9.6 | 0.00 | 0.01 | 0.00 | 95 | 1025.9 |
| 20260831154709 | 56 | 11 | 6.1 | 10.4 | 0.00 | 0.01 | 0.00 | 95 | 1025.9 |
| 20260831154208 | 56 | 10 | 6.1 | 8.7 | 0.00 | 0.01 | 0.00 | 96 | 1026.0 |
| 20260831153658 | 56 | 11 | 5.2 | 7.8 | 0.00 | 0.01 | 0.00 | 95 | 1026.0 |
| 20260831153156 | 56 | 11 | 4.3 | 8.7 | 0.00 | 0.01 | 0.00 | 95 | 1026.1 |
| 20260831152653 | 56 | 13 | 4.3 | 7.8 | 0.00 | 0.01 | 0.00 | 95 | 1026.2 |
| 20260831151632 | 56 | 10 | 4.3 | 7.0 | 0.00 | 0.01 | 0.00 | 95 | 1026.3 |
| 20260831151131 | 57 | 358 | 4.3 | 7.8 | 0.00 | 0.01 | 0.00 | 95 | 1026.3 |
| 20260831150626 | 57 | 360 | 3.5 | 7.0 | 0.00 | 0.01 | 0.00 | 95 | 1026.4 |
| 20260831150124 | 57 | 10 | 4.3 | 7.8 | 0.00 | 0.01 | 0.00 | 95 | 1026.4 |
| 20260831145623 | 57 | 4 | 4.3 | 7.8 | 0.00 | 0.01 | 0.00 | 95 | 1026.5 |
| 20260831144104 | 57 | 8 | 5.2 | 7.8 | 0.00 | 0.01 | 0.00 | 95 | 1026.6 |
| 20260831143602 | 57 | 8 | 5.2 | 7.8 | 0.00 | 0.01 | 0.00 | 95 | 1026.7 |
| 20260831143102 | 58 | 4 | 5.2 | 10.4 | 0.00 | 0.01 | 0.00 | 95 | 1026.7 |
| 20260831142600 | 58 | 7 | 6.1 | 10.4 | 0.00 | 0.01 | 0.00 | 94 | 1026.8 |
| 20260831142049 | 58 | 5 | 7.0 | 9.6 | 0.00 | 0.01 | 0.00 | 95 | 1026.8 |
| 20260831141527 | 58 | 5 | 6.1 | 9.6 | 0.00 | 0.01 | 0.00 | 95 | 1026.8 |
| 20260831140517 | 58 | 4 | 6.1 | 8.7 | 0.00 | 0.01 | 0.00 | 95 | 1026.8 |
| 20260831140016 | 58 | 8 | 6.1 | 10.4 | 0.00 | 0.01 | 0.00 | 96 | 1026.8 |
| 20260831135515 | 58 | 2 | 6.1 | 9.6 | 0.00 | 0.01 | 0.01 | 96 | 1026.8 |
| 20260831134007 | 58 | 5 | 6.1 | 8.7 | 0.00 | 0.01 | 0.01 | 96 | 1027.0 |
| 20260831133506 | 58 | 6 | 6.1 | 9.6 | 0.00 | 0.01 | 0.01 | 96 | 1027.1 |
| 20260831132459 | 58 | 2 | 7.0 | 11.3 | 0.00 | 0.01 | 0.01 | 96 | 1027.1 |
| 20260831131957 | 58 | 2 | 7.0 | 10.4 | 0.00 | 0.01 | 0.01 | 95 | 1027.1 |
| 20260831130953 | 58 | 358 | 7.0 | 8.7 | 0.00 | 0.01 | 0.01 | 95 | 1027.2 |
| 20260831130443 | 58 | 359 | 7.0 | 10.4 | 0.00 | 0.01 | 0.01 | 95 | 1027.2 |
| 20260831125933 | 58 | 360 | 7.0 | 9.6 | 0.00 | 0.01 | 0.01 | 95 | 1027.3 |
| 20260831124410 | 58 | 2 | 7.0 | 10.4 | 0.00 | 0.01 | 0.01 | 94 | 1027.4 |
| 20260831123908 | 58 | 0 | 7.0 | 8.7 | 0.00 | 0.01 | 0.01 | 94 | 1027.4 |
| 20260831122904 | 59 | 3 | 7.0 | 10.4 | 0.00 | 0.01 | 0.01 | 94 | 1027.5 |
| 20260831122402 | 59 | 0 | 7.0 | 9.6 | 0.00 | 0.01 | 0.01 | 93 | 1027.6 |
| 20260831121901 | 59 | 3 | 7.0 | 9.6 | 0.00 | 0.01 | 0.01 | 93 | 1027.6 |
| 20260831121400 | 59 | 3 | 7.0 | 8.7 | 0.00 | 0.01 | 0.01 | 93 | 1027.6 |
| 20260831120355 | 59 | 3 | 7.0 | 9.6 | 0.00 | 0.01 | 0.01 | 93 | 1027.7 |
| 20260831115853 | 59 | 1 | 7.0 | 9.6 | 0.00 | 0.01 | 0.01 | 93 | 1027.8 |
| 20260831115352 | 59 | 1 | 7.0 | 10.4 | 0.00 | 0.01 | 0.01 | 93 | 1027.8 |
| 20260831114851 | 59 | 2 | 7.0 | 9.6 | 0.00 | 0.01 | 0.01 | 93 | 1027.8 |
| 20260831114330 | 59 | 0 | 6.1 | 7.8 | 0.00 | 0.01 | 0.01 | 93 | 1027.8 |
| 20260831113325 | 59 | 0 | 5.2 | 7.8 | 0.00 | 0.01 | 0.01 | 92 | 1027.9 |
| 20260831112825 | 59 | 360 | 5.2 | 7.0 | 0.00 | 0.01 | 0.01 | 92 | 1028.0 |
| 20260831112323 | 59 | 5 | 5.2 | 7.8 | 0.00 | 0.01 | 0.01 | 91 | 1028.0 |
| 20260831111822 | 60 | 7 | 5.2 | 7.0 | 0.00 | 0.01 | 0.01 | 90 | 1028.0 |
| 20260831111321 | 60 | 10 | 5.2 | 7.8 | 0.00 | 0.01 | 0.01 | 90 | 1028.0 |
| 20260831110820 | 60 | 8 | 6.1 | 8.7 | 0.00 | 0.01 | 0.01 | 90 | 1027.8 |
| 20260831110313 | 60 | 10 | 6.1 | 8.7 | 0.00 | 0.01 | 0.01 | 89 | 1027.9 |
| 20260831105756 | 60 | 9 | 6.1 | 8.7 | 0.00 | 0.01 | 0.01 | 90 | 1027.9 |
| 20260831105254 | 60 | 10 | 6.1 | 7.8 | 0.00 | 0.01 | 0.01 | 89 | 1027.8 |
| 20260831104249 | 60 | 11 | 6.1 | 8.7 | 0.00 | 0.01 | 0.01 | 89 | 1027.8 |
| 20260831103747 | 60 | 13 | 6.1 | 8.7 | 0.00 | 0.01 | 0.01 | 89 | 1027.9 |
| 20260831103246 | 61 | 12 | 6.1 | 8.7 | 0.00 | 0.01 | 0.01 | 89 | 1027.8 |
| 20260831102238 | 61 | 12 | 6.1 | 8.7 | 0.00 | 0.01 | 0.01 | 89 | 1027.9 |
| 20260831101729 | 61 | 12 | 6.1 | 8.7 | 0.00 | 0.01 | 0.01 | 88 | 1027.9 |
| 20260831101228 | 61 | 13 | 6.1 | 7.8 | 0.00 | 0.01 | 0.01 | 88 | 1027.8 |
| 20260831100206 | 61 | 14 | 6.1 | 7.8 | 0.00 | 0.01 | 0.01 | 87 | 1027.8 |
| 20260831095201 | 61 | 13 | 6.1 | 7.8 | 0.00 | 0.01 | 0.01 | 88 | 1027.8 |
| 20260831094700 | 61 | 12 | 5.2 | 7.8 | 0.00 | 0.01 | 0.01 | 88 | 1027.8 |
| 20260831094157 | 61 | 12 | 5.2 | 7.0 | 0.00 | 0.01 | 0.01 | 88 | 1027.9 |
| 20260831093654 | 62 | 11 | 5.2 | 6.1 | 0.00 | 0.01 | 0.01 | 88 | 1027.8 |
| 20260831093152 | 62 | 16 | 5.2 | 7.0 | 0.00 | 0.01 | 0.01 | 87 | 1027.8 |
| 20260831092650 | 62 | 16 | 5.2 | 7.8 | 0.00 | 0.01 | 0.01 | 87 | 1027.8 |
| 20260831091645 | 62 | 17 | 5.2 | 7.8 | 0.00 | 0.01 | 0.01 | 86 | 1027.8 |
| 20260831091144 | 62 | 16 | 5.2 | 7.0 | 0.00 | 0.01 | 0.01 | 85 | 1027.8 |
| 20260831090643 | 62 | 14 | 4.3 | 7.0 | 0.00 | 0.01 | 0.01 | 85 | 1027.8 |
| 20260831090142 | 62 | 17 | 4.3 | 6.1 | 0.00 | 0.01 | 0.01 | 84 | 1027.8 |
| 20260831085640 | 63 | 15 | 4.3 | 6.1 | 0.00 | 0.01 | 0.01 | 82 | 1027.8 |
| 20260831085139 | 63 | 24 | 5.2 | 7.8 | 0.00 | 0.01 | 0.01 | 81 | 1027.8 |
| 20260831084638 | 63 | 23 | 6.1 | 8.7 | 0.00 | 0.01 | 0.01 | 80 | 1027.7 |
| 20260831084137 | 63 | 24 | 6.1 | 7.8 | 0.00 | 0.01 | 0.01 | 80 | 1027.8 |
| 20260831083132 | 63 | 31 | 5.2 | 7.0 | 0.00 | 0.01 | 0.01 | 79 | 1027.7 |
| 20260831082631 | 63 | 32 | 4.3 | 6.1 | 0.00 | 0.01 | 0.01 | 79 | 1027.7 |
| 20260831081626 | 62 | 46 | 6.1 | 9.6 | 0.00 | 0.01 | 0.01 | 78 | 1027.7 |
| 20260831081124 | 62 | 45 | 5.2 | 9.6 | 0.00 | 0.01 | 0.01 | 79 | 1027.7 |
| 20260831080623 | 62 | 62 | 7.0 | 9.6 | 0.00 | 0.01 | 0.01 | 78 | 1027.7 |
| 20260831080122 | 62 | 64 | 7.0 | 10.4 | 0.00 | 0.01 | 0.01 | 77 | 1027.7 |
| 20260831075621 | 62 | 68 | 7.8 | 9.6 | 0.00 | 0.01 | 0.01 | 77 | 1027.7 |
| 20260831075118 | 62 | 74 | 7.0 | 8.7 | 0.00 | 0.01 | 0.01 | 77 | 1027.7 |
| 20260831074617 | 62 | 76 | 7.0 | 9.6 | 0.00 | 0.01 | 0.01 | 76 | 1027.6 |
| 20260831073613 | 62 | 71 | 7.8 | 9.6 | 0.00 | 0.01 | 0.01 | 75 | 1027.5 |
| 20260831073112 | 62 | 76 | 7.8 | 8.7 | 0.00 | 0.01 | 0.01 | 77 | 1027.5 |
| 20260831072610 | 63 | 79 | 7.8 | 9.6 | 0.00 | 0.01 | 0.01 | 76 | 1027.5 |
| 20260831072109 | 63 | 79 | 7.8 | 9.6 | 0.00 | 0.01 | 0.01 | 75 | 1027.5 |
| 20260831071607 | 63 | 82 | 7.8 | 10.4 | 0.00 | 0.01 | 0.01 | 72 | 1027.5 |
| 20260831071105 | 64 | 80 | 7.8 | 9.6 | 0.00 | 0.01 | 0.01 | 71 | 1027.5 |
| 20260831070604 | 65 | 82 | 7.0 | 9.6 | 0.00 | 0.01 | 0.01 | 69 | 1027.5 |
| 20260831065559 | 66 | 90 | 7.0 | 9.6 | 0.00 | 0.01 | 0.01 | 66 | 1027.5 |
| 20260831064554 | 67 | 93 | 7.8 | 9.6 | 0.00 | 0.01 | 0.01 | 64 | 1027.4 |
| 20260831064053 | 69 | 100 | 6.1 | 7.8 | 0.00 | 0.01 | 0.01 | 60 | 1027.4 |
| 20260831063552 | 69 | 102 | 6.1 | 7.8 | 0.00 | 0.01 | 0.01 | 61 | 1027.3 |
| 20260831063050 | 69 | 100 | 6.1 | 8.7 | 0.00 | 0.01 | 0.01 | 61 | 1027.2 |
| 20260831062549 | 69 | 98 | 6.1 | 8.7 | 0.00 | 0.01 | 0.01 | 59 | 1027.2 |
| 20260831062047 | 69 | 103 | 6.1 | 8.7 | 0.00 | 0.01 | 0.01 | 60 | 1027.1 |
| 20260831061546 | 70 | 108 | 6.1 | 8.7 | 0.00 | 0.01 | 0.01 | 59 | 1027.1 |
| 20260831061045 | 70 | 100 | 6.1 | 8.7 | 0.00 | 0.01 | 0.01 | 60 | 1027.1 |
| 20260831060041 | 70 | 98 | 7.0 | 8.7 | 0.00 | 0.01 | 0.01 | 58 | 1027.1 |
| 20260831055540 | 68 | 97 | 7.0 | 8.7 | 0.00 | 0.01 | 0.01 | 60 | 1027.0 |
| 20260831055039 | 69 | 99 | 7.0 | 8.7 | 0.00 | 0.01 | 0.01 | 60 | 1027.1 |
| 20260831054538 | 69 | 93 | 6.1 | 7.8 | 0.00 | 0.01 | 0.01 | 60 | 1027.1 |
| 20260831053533 | 71 | 106 | 5.2 | 7.8 | 0.00 | 0.01 | 0.01 | 58 | 1027.1 |
| 20260831053032 | 71 | 110 | 4.3 | 7.0 | 0.00 | 0.01 | 0.01 | 58 | 1027.1 |
| 20260831052531 | 71 | 115 | 5.2 | 7.8 | 0.00 | 0.01 | 0.01 | 55 | 1027.1 |
| 20260831052029 | 71 | 118 | 6.1 | 7.8 | 0.00 | 0.01 | 0.01 | 56 | 1027.1 |
| 20260831051025 | 72 | 119 | 5.2 | 7.8 | 0.00 | 0.01 | 0.01 | 55 | 1027.1 |
| 20260831050524 | 72 | 114 | 5.2 | 7.0 | 0.00 | 0.01 | 0.01 | 56 | 1027.1 |
| 20260831045016 | 72 | 116 | 5.2 | 7.0 | 0.00 | 0.01 | 0.01 | 54 | 1027.1 |
| 20260831044515 | 71 | 118 | 6.1 | 7.8 | 0.00 | 0.01 | 0.01 | 58 | 1027.1 |
| 20260831044014 | 71 | 117 | 7.0 | 8.7 | 0.00 | 0.01 | 0.01 | 57 | 1027.2 |
| 20260831043513 | 71 | 115 | 6.1 | 7.8 | 0.00 | 0.01 | 0.01 | 56 | 1027.3 |
| 20260831043012 | 72 | 115 | 6.1 | 7.8 | 0.00 | 0.01 | 0.01 | 54 | 1027.3 |
| 20260831042511 | 71 | 114 | 6.1 | 8.7 | 0.00 | 0.01 | 0.01 | 56 | 1027.3 |
| 20260831042010 | 72 | 115 | 6.1 | 7.8 | 0.00 | 0.01 | 0.01 | 54 | 1027.4 |
| 20260831035148 | 73 | 119 | 4.3 | 6.1 | 0.00 | 0.01 | 0.01 | 53 | 1027.4 |
| 20260831034647 | 72 | 123 | 5.2 | 7.0 | 0.00 | 0.01 | 0.01 | 53 | 1027.5 |
| 20260831034146 | 71 | 119 | 5.2 | 7.0 | 0.00 | 0.01 | 0.01 | 57 | 1027.5 |
| 20260831033141 | 71 | 110 | 5.2 | 6.1 | 0.00 | 0.01 | 0.01 | 55 | 1027.7 |
| 20260831032123 | 71 | 109 | 5.2 | 6.1 | 0.00 | 0.01 | 0.01 | 57 | 1027.8 |
| 20260831031622 | 71 | 101 | 5.2 | 7.8 | 0.00 | 0.01 | 0.01 | 58 | 1027.9 |
| 20260831031118 | 71 | 104 | 5.2 | 7.0 | 0.00 | 0.01 | 0.01 | 54 | 1027.9 |
| 20260831030616 | 71 | 102 | 4.3 | 6.1 | 0.00 | 0.01 | 0.01 | 54 | 1028.0 |
| 20260831030114 | 71 | 109 | 4.3 | 6.1 | 0.00 | 0.01 | 0.01 | 56 | 1028.0 |
| 20260831025613 | 72 | 111 | 5.2 | 6.1 | 0.00 | 0.01 | 0.01 | 57 | 1028.1 |
| 20260831025110 | 72 | 113 | 4.3 | 6.1 | 0.00 | 0.01 | 0.01 | 59 | 1028.2 |
| 20260831024608 | 72 | 116 | 4.3 | 6.1 | 0.00 | 0.01 | 0.01 | 53 | 1028.3 |
| 20260831024105 | 71 | 109 | 5.2 | 6.1 | 0.00 | 0.01 | 0.01 | 58 | 1028.3 |
| 20260831023604 | 72 | 106 | 5.2 | 7.0 | 0.00 | 0.01 | 0.01 | 56 | 1028.4 |
| 20260831023103 | 71 | 113 | 4.3 | 6.1 | 0.00 | 0.01 | 0.01 | 57 | 1028.5 |
| 20260831022602 | 71 | 110 | 5.2 | 6.1 | 0.00 | 0.01 | 0.01 | 58 | 1028.5 |
| 20260831022101 | 70 | 110 | 5.2 | 6.1 | 0.00 | 0.01 | 0.01 | 62 | 1028.7 |
| 20260831021600 | 69 | 101 | 5.2 | 7.0 | 0.00 | 0.01 | 0.01 | 60 | 1028.7 |
| 20260831020555 | 68 | 98 | 4.3 | 6.1 | 0.00 | 0.01 | 0.01 | 63 | 1028.9 |
| 20260831020054 | 67 | 82 | 5.2 | 6.1 | 0.00 | 0.01 | 0.01 | 65 | 1028.9 |
| 20260831015553 | 67 | 73 | 3.5 | 6.1 | 0.00 | 0.01 | 0.01 | 64 | 1029.0 |
| 20260831014549 | 68 | 28 | 1.7 | 4.3 | 0.01 | 0.01 | 0.01 | 59 | 1029.1 |
| 20260831014048 | 68 | 15 | 2.6 | 4.3 | 0.01 | 0.01 | 0.01 | 63 | 1029.2 |
| 20260831013546 | 68 | 12 | 2.6 | 3.5 | 0.01 | 0.01 | 0.01 | 65 | 1029.3 |
| 20260831012540 | 67 | 339 | 2.6 | 3.5 | 0.01 | 0.01 | 0.01 | 63 | 1029.3 |
| 20260831012038 | 67 | 329 | 2.6 | 3.5 | 0.01 | 0.01 | 0.01 | 66 | 1029.3 |
| 20260831011537 | 66 | 326 | 2.6 | 3.5 | 0.01 | 0.01 | 0.01 | 72 | 1029.3 |
| 20260831011036 | 65 | 319 | 3.5 | 5.2 | 0.01 | 0.01 | 0.01 | 69 | 1029.4 |
| 20260831010032 | 65 | 317 | 1.7 | 3.5 | 0.01 | 0.01 | 0.01 | 69 | 1029.5 |
| 20260831005531 | 65 | 339 | 1.7 | 3.5 | 0.01 | 0.01 | 0.01 | 70 | 1029.5 |
| 20260831005029 | 64 | 316 | 2.6 | 4.3 | 0.01 | 0.01 | 0.01 | 71 | 1029.5 |
| 20260831004528 | 63 | 276 | 3.5 | 7.0 | 0.00 | 0.00 | 0.00 | 72 | 1029.5 |
| 20260831004027 | 62 | 264 | 4.3 | 6.1 | 0.00 | 0.00 | 0.00 | 72 | 1029.6 |
| 20260831003526 | 62 | 258 | 4.3 | 7.0 | 0.00 | 0.00 | 0.00 | 74 | 1029.6 |
| 20260831003025 | 62 | 264 | 4.3 | 7.0 | 0.00 | 0.00 | 0.00 | 74 | 1029.6 |
| 20260831002021 | 62 | 281 | 3.5 | 7.0 | 0.00 | 0.00 | 0.00 | 72 | 1029.6 |
| 20260831001520 | 62 | 294 | 2.6 | 6.1 | 0.00 | 0.00 | 0.00 | 73 | 1029.6 |
| 20260831001018 | 61 | 282 | 3.5 | 6.1 | 0.00 | 0.00 | 0.00 | 73 | 1029.6 |
| 20260831000517 | 62 | 293 | 3.5 | 6.1 | 0.00 | 0.00 | 0.00 | 75 | 1029.7 |
| 20260830235513 | 62 | 315 | 4.3 | 9.6 | 0.00 | 0.00 | 0.00 | 75 | 1029.7 |
| 20260830235011 | 62 | 313 | 3.5 | 7.8 | 0.00 | 0.00 | 0.00 | 75 | 1029.7 |
| 20260830234006 | 60 | 298 | 2.6 | 6.1 | 0.00 | 0.00 | 0.00 | 76 | 1029.6 |
| 20260830233505 | 61 | 313 | 2.6 | 7.0 | 0.00 | 0.00 | 0.00 | 76 | 1029.6 |
| 20260830233004 | 60 | 306 | 2.6 | 6.1 | 0.00 | 0.00 | 0.00 | 79 | 1029.6 |
| 20260830232504 | 60 | 293 | 2.6 | 6.1 | 0.00 | 0.00 | 0.00 | 79 | 1029.6 |
| 20260830232003 | 59 | 288 | 3.5 | 7.8 | 0.00 | 0.00 | 0.00 | 78 | 1029.6 |
| 20260830231501 | 59 | 266 | 4.3 | 7.8 | 0.00 | 0.00 | 0.00 | 79 | 1029.6 |
| 20260830231000 | 59 | 267 | 5.2 | 7.8 | 0.00 | 0.00 | 0.00 | 80 | 1029.6 |
| 20260830230458 | 59 | 265 | 5.2 | 8.7 | 0.00 | 0.00 | 0.00 | 81 | 1029.5 |
| 20260830225937 | 58 | 270 | 4.3 | 7.8 | 0.00 | 0.00 | 0.00 | 81 | 1029.5 |
| 20260830225436 | 58 | 266 | 4.3 | 8.7 | 0.00 | 0.00 | 0.00 | 79 | 1029.5 |
| 20260830224431 | 58 | 267 | 5.2 | 8.7 | 0.00 | 0.00 | 0.00 | 84 | 1029.4 |
| 20260830223928 | 58 | 268 | 4.3 | 7.8 | 0.00 | 0.00 | 0.00 | 86 | 1029.5 |
| 20260830223427 | 58 | 266 | 5.2 | 7.8 | 0.00 | 0.00 | 0.00 | 87 | 1029.4 |
| 20260830222421 | 57 | 279 | 4.3 | 8.7 | 0.00 | 0.00 | 0.00 | 87 | 1029.4 |
| 20260830221920 | 57 | 274 | 5.2 | 7.8 | 0.00 | 0.00 | 0.00 | 87 | 1029.4 |
| 20260830220914 | 57 | 284 | 3.5 | 7.8 | 0.00 | 0.00 | 0.00 | 88 | 1029.4 |
| 20260830220413 | 57 | 280 | 4.3 | 6.1 | 0.00 | 0.00 | 0.00 | 89 | 1029.4 |
| 20260830215911 | 57 | 294 | 4.3 | 6.1 | 0.00 | 0.00 | 0.00 | 90 | 1029.4 |
| 20260830215410 | 56 | 286 | 4.3 | 7.0 | 0.00 | 0.00 | 0.00 | 90 | 1029.3 |
| 20260830214404 | 56 | 286 | 4.3 | 6.1 | 0.00 | 0.00 | 0.00 | 91 | 1029.3 |
| 20260830212856 | 56 | 301 | 3.5 | 7.0 | 0.00 | 0.00 | 0.00 | 93 | 1029.0 |
| 20260830212355 | 56 | 308 | 3.5 | 6.1 | 0.00 | 0.00 | 0.00 | 93 | 1029.0 |
| 20260830211853 | 55 | 292 | 3.5 | 6.1 | 0.00 | 0.00 | 0.00 | 93 | 1028.9 |
| 20260830211351 | 55 | 292 | 3.5 | 6.1 | 0.00 | 0.00 | 0.00 | 94 | 1028.8 |
| 20260830210850 | 55 | 298 | 3.5 | 7.0 | 0.00 | 0.00 | 0.00 | 95 | 1028.8 |
| 20260830210349 | 55 | 308 | 4.3 | 6.1 | 0.00 | 0.00 | 0.00 | 96 | 1028.8 |
| 20260830205848 | 55 | 300 | 3.5 | 6.1 | 0.00 | 0.00 | 0.00 | 98 | 1028.7 |
| 20260830205347 | 55 | 287 | 3.5 | 7.0 | 0.00 | 0.00 | 0.00 | 98 | 1028.7 |
| 20260830204846 | 54 | 287 | 4.3 | 7.0 | 0.00 | 0.00 | 0.00 | 98 | 1028.6 |
| 20260830204345 | 54 | 298 | 3.5 | 6.1 | 0.00 | 0.00 | 0.00 | 99 | 1028.5 |
| 20260830203340 | 53 | 305 | 3.5 | 5.2 | 0.00 | 0.00 | 0.00 | 99 | 1028.4 |
| 20260830201833 | 53 | 313 | 4.3 | 6.1 | 0.00 | 0.00 | 0.00 | 100 | 1028.3 |
| 20260830201332 | 53 | 310 | 3.5 | 6.1 | 0.00 | 0.00 | 0.00 | 100 | 1028.2 |
| 20260830200831 | 53 | 317 | 3.5 | 6.1 | 0.00 | 0.00 | 0.00 | 100 | 1028.2 |
| 20260830200329 | 53 | 322 | 3.5 | 7.0 | 0.00 | 0.00 | 0.00 | 100 | 1028.2 |
| 20260830195828 | 53 | 320 | 4.3 | 7.0 | 0.00 | 0.00 | 0.00 | 100 | 1028.1 |
| 20260830195326 | 54 | 320 | 4.3 | 7.0 | 0.00 | 0.00 | 0.00 | 100 | 1028.0 |
| 20260830194322 | 54 | 313 | 4.3 | 7.0 | 0.00 | 0.00 | 0.00 | 100 | 1027.9 |
| 20260830193821 | 55 | 279 | 5.2 | 7.0 | 0.00 | 0.00 | 0.00 | 100 | 1027.9 |
| 20260830193320 | 54 | 273 | 5.2 | 7.8 | 0.00 | 0.00 | 0.00 | 100 | 1027.9 |
| 20260830192819 | 54 | 261 | 6.1 | 7.8 | 0.00 | 0.00 | 0.00 | 100 | 1027.9 |
| 20260830192318 | 54 | 259 | 6.1 | 8.7 | 0.00 | 0.00 | 0.00 | 100 | 1027.8 |
| 20260830191314 | 54 | 259 | 6.1 | 7.8 | 0.00 | 0.00 | 0.00 | 99 | 1027.8 |
| 20260830190813 | 54 | 259 | 6.1 | 7.8 | 0.00 | 0.00 | 0.00 | 99 | 1027.8 |
| 20260830190302 | 54 | 265 | 5.2 | 7.8 | 0.00 | 0.00 | 0.00 | 99 | 1027.8 |
| 20260830185801 | 54 | 265 | 6.1 | 7.8 | 0.00 | 0.00 | 0.00 | 98 | 1027.8 |
| 20260830185300 | 54 | 266 | 6.1 | 7.8 | 0.00 | 0.00 | 0.00 | 98 | 1027.8 |
| 20260830184256 | 54 | 261 | 6.1 | 7.8 | 0.00 | 0.00 | 0.00 | 96 | 1027.9 |
| 20260830183755 | 54 | 265 | 6.1 | 8.7 | 0.00 | 0.00 | 0.00 | 96 | 1027.8 |
| 20260830182751 | 54 | 267 | 6.1 | 8.7 | 0.00 | 0.00 | 0.00 | 96 | 1027.8 |
| 20260830182250 | 54 | 266 | 6.1 | 8.7 | 0.00 | 0.00 | 0.00 | 96 | 1027.8 |
| 20260830181747 | 54 | 256 | 6.1 | 8.7 | 0.00 | 0.00 | 0.00 | 96 | 1027.8 |
| 20260830181246 | 54 | 253 | 6.1 | 8.7 | 0.00 | 0.00 | 0.00 | 97 | 1027.8 |
| 20260830180745 | 54 | 254 | 6.1 | 8.7 | 0.00 | 0.00 | 0.00 | 97 | 1027.8 |
| 20260830180244 | 55 | 253 | 6.1 | 8.7 | 0.00 | 0.00 | 0.00 | 97 | 1027.8 |
| 20260830175239 | 55 | 257 | 7.0 | 8.7 | 0.00 | 0.00 | 0.00 | 96 | 1027.7 |
| 20260830174235 | 55 | 258 | 7.0 | 9.6 | 0.00 | 0.00 | 0.00 | 95 | 1027.8 |
| 20260830173231 | 55 | 262 | 6.1 | 7.0 | 0.00 | 0.00 | 0.00 | 95 | 1027.7 |
| 20260830172730 | 55 | 264 | 5.2 | 7.0 | 0.00 | 0.00 | 0.00 | 95 | 1027.7 |
| 20260830172229 | 55 | 262 | 5.2 | 7.0 | 0.00 | 0.00 | 0.00 | 95 | 1027.7 |
| 20260830171727 | 55 | 267 | 6.1 | 7.0 | 0.00 | 0.00 | 0.00 | 96 | 1027.7 |
| 20260830171226 | 55 | 258 | 6.1 | 7.0 | 0.00 | 0.00 | 0.00 | 95 | 1027.6 |
| 20260830170725 | 55 | 258 | 6.1 | 7.0 | 0.00 | 0.00 | 0.00 | 95 | 1027.6 |
| 20260830170224 | 56 | 259 | 5.2 | 6.1 | 0.00 | 0.00 | 0.00 | 94 | 1027.7 |
| 20260830165723 | 56 | 262 | 5.2 | 7.0 | 0.00 | 0.00 | 0.00 | 94 | 1027.7 |